Location: Cointrin
(46.2167°N, 6.1167°E)
Time: 06:15:08
(UTC+00:00)

Cosmos 2058 - Pass Details

Date: 08 February 2023
Orbit: 555 x 577 km, 82.5° (Epoch: 25 March)

Event Time Altitude Azimuth Distance (km) Brightness Sun altitude
Rises 18:01:47 0° 154° (SSE) 2,785 6.2 -12.8°
Reaches altitude 10° 18:04:19 10° 140° (SE) 1,890 5.2 -13.2°
Maximum altitude 18:07:35 23° 88° (E) 1,264 4.0 -13.8°
Enters shadow 18:07:45 23° 84° (E) 1,266 4.0 -13.8°
